CW3066 Weather Reports


time (UTC)temp
C
wind
direction
speed
KPH
gust
KPH
rain 1hr
cm
rain 24hr
cm
rain mn
cm
humidity
%
barometer
mb
20260505124502 16 340 0.0 3.2 0.00 0.03 0.00 64 1005.5
20260505123107 15 341 0.0 1.6 0.00 0.03 0.00 67 1005.4
20260505121600 15 341 0.0 1.6 0.00 0.03 0.00 70 1005.1
20260505120100 13 341 0.0 0.0 0.00 0.03 0.00 73 1005.0
20260505114559 13 341 0.0 1.6 0.00 0.03 0.00 74 1005.0
20260505113101 13 341 0.0 0.0 0.00 0.03 0.00 75 1005.1
20260505111559 12 341 0.0 0.0 0.00 0.10 0.00 75 1005.0
20260505110104 12 341 0.0 0.0 0.00 0.10 0.00 73 1004.9
20260505101550 13 341 0.0 0.0 0.00 0.18 0.00 68 1004.2
20260505100052 14 341 0.0 0.0 0.00 0.18 0.00 66 1004.0
20260505094545 15 341 0.0 1.6 0.00 0.18 0.00 64 1003.8
20260505093043 15 341 0.0 0.0 0.00 0.18 0.00 63 1003.8
20260505091553 15 341 0.0 1.6 0.00 0.23 0.00 61 1003.7
20260505090052 16 341 0.0 1.6 0.00 0.23 0.00 61 1003.7
20260505084539 16 343 0.0 6.4 0.00 0.23 0.00 60 1003.5
20260505083043 16 340 0.0 4.8 0.00 0.23 0.00 60 1003.4
20260505081552 16 342 0.0 4.8 0.00 0.23 0.00 60 1003.3
20260505080045 16 342 0.0 4.8 0.00 0.23 0.00 59 1003.4
20260505074543 16 339 0.0 4.8 0.00 0.23 0.00 59 1003.3
20260505073033 16 345 0.0 4.8 0.00 0.23 0.00 59 1003.2
20260505071533 16 345 0.0 3.2 0.00 0.23 0.00 58 1003.3
20260505070032 16 342 0.0 3.2 0.00 0.23 0.00 58 1003.4
20260505064534 17 342 0.0 4.8 0.00 0.23 0.00 58 1003.4
20260505063038 16 341 0.0 3.2 0.00 0.23 0.00 59 1003.4
20260505061534 16 344 0.0 4.8 0.00 0.23 0.00 60 1003.5
20260505060029 16 342 0.0 1.6 0.00 0.23 0.00 60 1003.5
20260505054529 16 342 0.0 0.0 0.00 0.23 0.00 59 1003.6
20260505053025 17 342 0.0 1.6 0.00 0.23 0.00 58 1003.8
20260505051526 17 342 0.0 0.0 0.00 0.23 0.00 57 1003.8
20260505041518 17 342 0.0 1.6 0.00 0.23 0.23 56 1003.5
20260505040017 17 342 0.0 0.0 0.00 0.23 0.23 55 1003.5
20260505034519 18 342 0.0 1.6 0.00 0.23 0.23 55 1003.4
20260505033029 18 342 0.0 0.0 0.00 0.23 0.23 55 1003.2
20260505031516 18 342 0.0 0.0 0.00 0.23 0.23 54 1003.0
20260505030016 18 342 0.0 3.2 0.00 0.23 0.23 54 1002.9
20260505024533 18 342 0.0 0.0 0.00 0.23 0.23 55 1002.5
20260505023015 18 342 0.0 0.0 0.00 0.23 0.23 55 1002.5
20260505021531 18 342 0.0 1.6 0.00 0.23 0.23 54 1002.4
20260505020014 19 342 0.0 0.0 0.00 0.23 0.23 53 1002.1
20260505014516 19 342 0.0 0.0 0.00 0.23 0.23 52 1001.9
20260505013013 20 342 0.0 1.6 0.00 0.23 0.23 51 1002.0
20260505011513 20 342 0.0 4.8 0.00 0.23 0.23 49 1001.9
20260505010013 21 342 0.0 3.2 0.00 0.23 0.23 47 1001.9
20260505004521 21 342 0.0 3.2 0.00 0.23 0.23 46 1001.8
20260505003011 22 342 0.0 0.0 0.00 0.23 0.23 43 1002.0
20260505001511 22 342 0.0 3.2 0.00 0.23 0.23 41 1002.1
20260505000011 22 343 0.0 6.4 0.00 0.23 0.23 41 1002.4
20260504234508 23 348 0.0 4.8 0.00 0.23 0.23 39 1002.6
20260504233008 23 344 0.0 8.0 0.00 0.23 0.23 38 1002.9
20260504231507 24 344 1.6 11.3 0.00 0.23 0.23 37 1002.9
20260504230007 25 348 0.0 8.0 0.00 0.23 0.23 36 1003.1
20260504224508 25 348 3.2 12.9 0.00 0.23 0.23 34 1003.1
20260504223006 26 348 3.2 11.3 0.00 0.23 0.23 32 1003.2
20260504221504 26 351 0.0 4.8 0.00 0.23 0.23 34 1003.1
20260504220003 26 355 0.0 9.7 0.00 0.23 0.23 35 1003.2
20260504214502 25 350 1.6 6.4 0.00 0.23 0.23 34 1003.2
20260504213002 25 350 3.2 11.3 0.00 0.23 0.23 37 1003.2
20260504211600 25 348 0.0 19.3 0.00 0.23 0.23 36 1003.2
20260504210104 26 350 1.6 14.5 0.00 0.23 0.23 35 1003.3
20260504204616 26 349 0.0 17.7 0.00 0.23 0.23 36 1003.3
20260504203057 26 351 1.6 9.7 0.00 0.23 0.23 35 1003.7
20260504201603 26 350 0.0 14.5 0.00 0.23 0.23 37 1003.8
20260504200107 25 350 1.6 11.3 0.00 0.23 0.23 38 1004.2
20260504194553 25 349 1.6 9.7 0.00 0.23 0.23 39 1004.3
20260504193052 25 351 3.2 16.1 0.00 0.23 0.23 37 1004.6
20260504191549 25 355 3.2 12.9 0.00 0.23 0.23 40 1004.8
20260504190048 24 348 1.6 11.3 0.00 0.23 0.23 43 1004.8
20260504184555 24 355 0.0 11.3 0.00 0.23 0.23 43 1004.8
20260504183146 24 350 1.6 14.5 0.00 0.23 0.23 43 1004.8
20260504181546 23 350 1.6 11.3 0.00 0.23 0.23 46 1004.8
20260504180042 23 349 3.2 17.7 0.00 0.23 0.23 44 1004.8
20260504174540 23 349 1.6 11.3 0.00 0.23 0.23 45 1004.9
20260504173038 22 349 1.6 20.9 0.00 0.23 0.23 46 1004.9
20260504171536 22 351 1.6 11.3 0.00 0.23 0.23 48 1004.9